{"data":{"norad_id":53774,"intl_designator":"2022-111B","name":"STARLINK-4719","alt_names":[],"object_type":"PAYLOAD","status":"ACTIVE","operator":null,"country":"US","launch_date":"2022-09-11","launch_site_code":"AFETR","launch_vehicle":null,"mission":null,"orbit_class":"UNKNOWN","rcs_meters":null,"size_class":null,"mass_kg":null,"dimensions":null,"purposes":["comms"],"wikipedia_slug":null,"has_3d_model":false,"image_url":null,"decayed_at":null,"tle_current":{"epoch":"2026-09-20T21:22:48.798912Z","epoch_age_seconds":50303,"freshness":"FRESH","line1":"1 53774U 22111B   26263.89084258 -.00007937  00000+0 -24403-3 0  9999","line2":"2 53774  53.1596 116.7163 0001008  95.4798 264.6319 15.31729913223327","mean_motion":15.31729913,"eccentricity":0.0001008,"inclination_deg":53.1596,"raan_deg":116.7163,"arg_perigee_deg":95.4798,"mean_anomaly_deg":264.6319,"bstar":-0.00024403,"rev_number":22332,"period_min":94.011351986961,"perigee_km":469.96046976732,"apogee_km":471.34118539336,"semimajor_km":6848.7878275803,"source":"CELESTRAK","updated_at":"2026-09-21T09:00:32.991300Z"}}}